Regional Weather Roundup
Issued by NWS

Home | Current Version | Previous Version | Text Only | Print | Product List | Glossary On
Versions: 1 2 3 4 5 6 7 8 9 10 11 12 13 14 15 16 17 18 19 20 21 22 23 24 25 26 27 28 29 30 31 32 33 34 35 36 37 38 39 40 41 42 43 44 45 46 47 48 49 50
000
ASUS44 KLIX 232006
RWRLA
LOUISIANA WEATHER ROUNDUP
NATIONAL WEATHER SERVICE NEW ORLEANS LA
300 PM CDT MON APR 23 2018

NOTE: "FAIR" INDICATES FEW OR NO CLOUDS BELOW 12,000 FEET WITH NO
      SIGNIFICANT WEATHER AND/OR OBSTRUCTIONS TO VISIBILITY.
      SKY/WX - SKY CONDITION AND SIGNIFICANT WEATHER.
      TMP - AIR TEMPERATURE.    DP   - DEWPOINT TEMPERATURE.
      RH  - RELATIVE HUMIDITY.  PRES - PRESSURE.
      HX  - HEAT INDEX.         WCI  - WIND CHILL INDEX.

*  THESE STATIONS ARE NOT NWS OR FAA STATIONS AND ARE NOT UNDER
   NWS QUALITY CONTROL.

LAZ040-048-061>063-065-066-069-232100-
SOUTHEAST LOUISIANA

CITY           SKY/WX    TMP DP  RH WIND       PRES   REMARKS
N.O. INTL ARPT FAIR      73  55  53 W15       29.96F
N.O. LAKEFRONT FAIR      72  56  57 NW15      29.97F
N.O. DOWNTOWN* MOCLDY    74  52  46 W9G20     29.97F
RESERVE*       MOCLDY    76  53  44 NW9G18    29.96F
SLIDELL        CLOUDY    70  53  54 VRB7      29.95F
BATON ROUGE    PTSUNNY   71  53  52 W10       29.97F
BOOTHVILLE     FAIR      71  57  61 SW15G24   29.98F
BELLE CHASSE   FAIR      73  56  54 W8G20     29.95F
BOGALUSA*      MOCLDY    69  53  56 W9        29.97F
GALLIANO*      FAIR      73  53  51 W14       29.97F
NEW ROADS*     MOCLDY    69  55  62 NW7       29.98F
GONZALES*      FAIR      72  53  51 W7        29.96F
HAMMOND*       FAIR      68  52  56 NW13G20   29.97F
HOUMA*         NOT AVBL
PORT FOURCHON* CLEAR     70  54  56 W17       29.99F

$$

LAZ041-044-053-054-232100-
SOUTHWEST LOUISIANA

CITY           SKY/WX    TMP DP  RH WIND       PRES   REMARKS
LAKE CHARLES   FAIR      75  54  47 W10       29.97F
LAFAYETTE      FAIR      74  55  51 NW10      29.97F
PATTERSON      FAIR      73  56  54 W15       29.98F
SALT POINT       N/A    N/A N/A N/A W8        29.97F
NEW IBERIA     FAIR      74  52  46 NW16      29.97F
CHENAULT AIRPK MOSUNNY   75  54  46 W10G21    29.98F

$$

LAZ027-028-232100-
CENTRAL LOUISIANA

CITY           SKY/WX    TMP DP  RH WIND       PRES   REMARKS
FORT POLK      PTSUNNY   71  54  55 NW12      29.97F
ALEXANDRIA INT PTSUNNY   67  54  63 NW10      29.96F
ALEXANDRIA     PTSUNNY   69  54  58 NW8       29.97F

$$

LAZ001-002-232100-
NORTHWEST LOUISIANA

CITY           SKY/WX    TMP DP  RH WIND       PRES   REMARKS
SHREVEPORT     PTSUNNY   66  55  67 W10       29.98F
BARKSDALE AFB  PTSUNNY   65  53  65 W12       29.97F
DTN SHREVEPORT CLOUDY    66  54  65 W8        29.98F

$$

LAZ014-016-232100-
NORTHEAST LOUISIANA

CITY           SKY/WX    TMP DP  RH WIND       PRES   REMARKS
MONROE         CLOUDY    65  55  70 SW8       29.96F
TALLULAH       CLOUDY    60  54  80 VRB6      29.97F

$$




USA.gov is the U.S. government's official web portal to all federal, state and local government web resources and services.